Tracking 28790 objects as of 18-Apr-2024
HD Live streaming from Space Station
objects crossing your sky now

FENGYUN 1C DEB

Track FENGYUN 1C DEB now!
10-day predictions


NORAD ID: 37595
Int'l Code: 1999-025EKP
Perigee: 752.1 km
Apogee: 815.9 km
Inclination: 99.1 °
Period: 100.4 minutes
Semi major axis: 7154 km
RCS: 0.0015 m2 (small)
Launch date: May 10, 1999
Source: People's Republic of China (PRC)
Launch site: Taiyaun Space Center, China (TSC)

Note: This is SATELLITE DEBRIS
Your satellite tracking list
Your tracking list is empty




NASA's NSSDC Master Catalog

Two Line Element Set (TLE):
1 37595U 99025EKP 24109.26089214  .00023744  00000-0  83210-2 0  9998
2 37595  99.0566 264.6841 0044547  25.5137 105.2919 14.34465430801790
Source of the keplerian elements: AFSPC